[[{"header":{"parameterUnit":"m.s-1","parameterCategory":1,"la1":30.2991,"la2":30.254,"lo1":-89.0895,"lo2":-89.0444,"dy":0.0017,"dx":0.0017,"nx":28,"ny":28,"refTime":"2024-05-23T09:00:00:Z","depth":0,"parameterNumber":2,"parameterNumberName":"U-component_of_WINDS"},"data":[0,0,0,0,0,0,0,0,0,0,0,0,0,0,0,0,0,0,0,0,0,0,0,0,0,0,0,0,0,0,0,0,0,0,0,0,0,0,0,0,0,0,0,0,0,0,0,0,0,0,0,0,0,0,0,0,0,0,-1.0194,-1.0194,0,-1.0149,-1.0148,-1.0147,-1.011,-1.011,-1.011,-1.0109,-1.0063,-1.0062,-1.0061,0,0,0,0,0,0,0,0,0,0,0,0,0,-1.0251,-1.025,-1.0194,-1.0194,-1.0193,-1.0149,-1.0148,-1.0147,-1.011,-1.011,-1.011,-1.0109,-1.0063,-1.0062,-1.0061,0,0,0,0,0,0,0,0,0,0,0,0,0,-1.0218,-1.025,-1.0194,-1.0169,-1.0167,-1.0149,-1.0148,-1.0147,-1.0111,-1.011,-1.0109,-1.0109,-1.0063,-1.0062,-1.0061,-1.0064,0,0,-1.0057,-1.0056,0,0,0,0,0,0,0,0,-1.022,-1.0216,-1.0174,-1.0171,-1.0168,-1.0135,-1.0151,-1.0119,-1.0111,-1.0132,-1.0109,-1.0109,-1.0087,-1.0084,-1.0076,-1.0062,-1.006,-1.0056,-1.0056,-1.0055,-1.0055,0,0,0,0,0,0,0,-1.0222,-1.0217,-1.0176,-1.0173,-1.017,-1.0161,-1.0155,-1.0145,-1.0113,-1.013,-1.0127,-1.0122,-1.0085,-1.0078,-1.0075,-1.0059,-1.0057,-1.0055,-1.0055,-1.0054,-1.0045,-1.0045,0,0,0,0,0,0,-1.0228,-1.022,-1.0178,-1.0175,-1.0193,-1.016,-1.0154,-1.0146,-1.0113,-1.0108,-1.0123,-1.0121,-1.008,-1.0077,-1.0073,-1.0075,-1.0055,-1.0054,-1.0053,-1.0044,-1.0045,-1.0045,0,0,0,0,0,0,-1.0229,-1.0225,-1.018,-1.0196,-1.019,-1.016,-1.0151,-1.0145,-1.0138,-1.0108,-1.0102,-1.0121,-1.008,-1.0075,-1.0066,-1.0073,-1.0053,-1.0052,-1.0043,-1.0044,-1.0045,-1.0078,0,0,0,0,0,0,-1.0231,-1.0225,-1.0226,-1.0197,-1.0189,-1.0174,-1.0151,-1.0145,-1.0135,-1.0132,-1.0104,-1.0099,-1.0079,-1.0069,-1.0065,-1.007,-1.0051,-1.0043,-1.0044,-1.0045,-1.0076,-1.008,-1.0083,0,0,0,0,0,-1.0233,-1.0237,-1.0226,-1.0222,-1.019,-1.0174,-1.017,-1.0146,-1.0136,-1.0137,-1.0118,-1.01,-1.0073,-1.0068,-1.0064,-1.0069,-1.0042,-1.0043,-1.0045,-1.0075,-1.0079,-1.0083,0,0,0,0,0,0,-1.0269,-1.0233,-1.022,-1.0215,-1.0198,-1.0168,-1.0168,-1.0152,-1.0137,-1.0135,-1.0106,-1.01,-1.0095,-1.0081,-1.0076,-1.007,-1.0055,-1.0056,-1.0079,-1.0083,-1.0087,-1.009,-1.005,0,0,0,0,0,-1.0276,-1.0266,-1.0235,-1.0234,-1.0225,-1.0198,-1.0191,-1.0174,-1.0155,-1.0147,-1.0128,-1.011,-1.0097,-1.009,-1.0076,-1.0074,-1.0067,-1.0075,-1.0079,-1.0082,-1.0082,-1.008,-1.0083,-1.0049,-1.0049,-1.0049,0,0,-1.029,-1.027,-1.0265,-1.024,-1.0225,-1.0215,-1.0192,-1.0183,-1.0176,-1.0146,-1.0137,-1.0122,-1.01,-1.0095,-1.0091,-1.0083,-1.009,-1.0083,-1.0086,-1.0085,-1.0081,-1.0085,-1.0088,-1.005,-1.005,-1.005,0,0,-1.0312,-1.0296,-1.0292,-1.0277,-1.0254,-1.0236,-1.0235,-1.0207,-1.0196,-1.0186,-1.0164,-1.0155,-1.0134,-1.0119,-1.0109,-1.0125,-1.0109,-1.0122,-1.0139,-1.0137,-1.014,-1.0142,-1.0148,-1.015,-1.0123,-1.0123,-1.0123,0,-1.0333,-1.0318,-1.0292,-1.0285,-1.0274,-1.0247,-1.0243,-1.023,-1.0204,-1.0197,-1.0189,-1.0161,-1.0145,-1.0136,-1.014,-1.0132,-1.0131,-1.0125,-1.0142,-1.0143,-1.0145,-1.015,-1.0152,-1.0124,-1.0124,-1.0124,-1.0124,0,-1.0345,-1.0335,-1.0335,-1.031,-1.0299,-1.0294,-1.0268,-1.0261,-1.0245,-1.0228,-1.0218,-1.0197,-1.0179,-1.0176,-1.0161,-1.0165,-1.016,-1.0147,-1.0131,-1.0151,-1.0155,-1.0157,-1.0127,-1.0126,-1.0126,-1.0125,0,0,-1.0388,-1.0349,-1.0349,-1.0337,-1.031,-1.0302,-1.0295,-1.0277,-1.0271,-1.0254,-1.0248,-1.0231,-1.0218,-1.0207,-1.019,-1.0188,-1.0202,-1.0175,-1.0174,-1.018,-1.0205,-1.0215,-1.0217,-1.0191,-1.0191,-1.0191,-1.0206,0,-1.0405,-1.0391,-1.0368,-1.0361,-1.0351,-1.0325,-1.0319,-1.0302,-1.0286,-1.0275,-1.0257,-1.0245,-1.023,-1.0223,-1.022,-1.0201,-1.0207,-1.02,-1.0185,-1.0184,-1.0191,-1.022,-1.023,-1.0245,-1.0208,-1.0208,-1.0208,0,-1.0423,-1.0407,-1.04,-1.0373,-1.0368,-1.0363,-1.0345,-1.0335,-1.0315,-1.0303,-1.029,-1.0272,-1.0263,-1.0249,-1.0237,-1.0233,-1.0225,-1.0215,-1.0215,-1.0213,-1.0198,-1.0218,-1.025,-1.0252,-1.0211,-1.0211,-1.0211,0,-1.0455,-1.0432,-1.0424,-1.0415,-1.0383,-1.0381,-1.0367,-1.0347,-1.0337,-1.0321,-1.0315,-1.0299,-1.029,-1.0277,-1.0255,-1.0247,-1.0245,-1.0229,-1.0235,-1.0236,-1.0236,-1.0236,-1.0267,-1.0232,-1.0232,-1.0232,-1.0232,0,-1.0477,-1.0473,-1.0438,-1.0433,-1.0428,-1.0402,-1.0398,-1.0383,-1.0364,-1.0356,-1.0333,-1.0326,-1.0296,-1.0286,-1.0268,-1.0261,-1.0257,-1.0247,-1.0242,-1.0249,-1.025,-1.0244,-1.0242,-1.0232,-1.0232,-1.0232,-1.0232,0,-1.0511,-1.0488,-1.0478,-1.0448,-1.0441,-1.0439,-1.0414,-1.0408,-1.0391,-1.0381,-1.0377,-1.035,-1.0336,-1.0312,-1.0292,-1.028,-1.0276,-1.0268,-1.0283,-1.028,-1.0287,-1.0287,-1.0315,-1.0317,-1.0281,-1.0281,-1.0281,0,-1.0527,-1.0523,-1.0494,-1.0486,-1.0474,-1.0463,-1.0453,-1.0427,-1.0418,-1.0394,-1.0392,-1.0376,-1.0363,-1.0342,-1.0321,-1.0305,-1.0296,-1.0307,-1.0294,-1.0301,-1.0296,-1.0297,-1.0296,-1.031,-1.0311,-1.0311,-1.0311,0,-1.0557,-1.0545,-1.0532,-1.0514,-1.0503,-1.0489,-1.0473,-1.0468,-1.0439,-1.043,-1.0415,-1.0405,-1.0384,-1.0369,-1.035,-1.0336,-1.0319,-1.0316,-1.0316,-1.0323,-1.0332,-1.0327,-1.0291,-1.0315,-1.0315,-1.0315,-1.0314,-1.0314,-1.0582,-1.0578,-1.0556,-1.0542,-1.0527,-1.0513,-1.0506,-1.0487,-1.0475,-1.0456,-1.0441,-1.0428,-1.0408,-1.038,-1.0368,-1.0357,-1.0349,-1.035,-1.035,-1.0351,-1.0353,-1.0333,-1.0354,-1.0354,-1.0353,-1.0353,-1.0353,0,-1.0611,-1.0595,-1.0583,-1.0561,-1.055,-1.0534,-1.0515,-1.0507,-1.0496,-1.0478,-1.0465,-1.0449,-1.0434,-1.0411,-1.0394,-1.039,-1.0382,-1.0387,-1.0387,-1.0384,-1.0362,-1.0363,-1.0394,-1.0394,-1.0394,-1.0394,-1.0394,-1.0394,-1.0624,-1.0616,-1.0602,-1.0586,-1.057,-1.0557,-1.0547,-1.0534,-1.052,-1.0502,-1.049,-1.0475,-1.0455,-1.0437,-1.0422,-1.0416,-1.0411,-1.0418,-1.041,-1.0389,-1.0385,-1.0382,-1.0383,-1.0418,-1.0418,-1.0433,-1.0433,-1.0433]},{"header":{"parameterUnit":"m.s-1","parameterCategory":1,"la1":30.2991,"la2":30.254,"lo1":-89.0895,"lo2":-89.0444,"dy":0.0017,"dx":0.0017,"nx":28,"ny":28,"refTime":"2024-05-23T09:00:00:Z","depth":0,"parameterNumber":3,"parameterNumberName":"V-component_of_WINDS"},"data":[0,0,0,0,0,0,0,0,0,0,0,0,0,0,0,0,0,0,0,0,0,0,0,0,0,0,0,0,0,0,0,0,0,0,0,0,0,0,0,0,0,0,0,0,0,0,0,0,0,0,0,0,0,0,0,0,0,0,1.5987,1.5986,0,1.5927,1.5926,1.5926,1.5842,1.5841,1.5839,1.5838,1.5779,1.5779,1.5778,0,0,0,0,0,0,0,0,0,0,0,0,0,1.603,1.603,1.5987,1.5986,1.5986,1.5927,1.5926,1.5926,1.5842,1.5841,1.5839,1.5837,1.5779,1.5779,1.5778,0,0,0,0,0,0,0,0,0,0,0,0,0,1.5995,1.603,1.5987,1.5937,1.5932,1.5927,1.5926,1.5925,1.5843,1.584,1.5838,1.5836,1.5779,1.5779,1.5778,1.5819,0,0,1.5777,1.5777,0,0,0,0,0,0,0,0,1.5997,1.5994,1.5945,1.594,1.5935,1.589,1.592,1.589,1.5843,1.5877,1.5838,1.5835,1.5818,1.5814,1.5807,1.5816,1.5814,1.5777,1.5777,1.5777,1.5777,0,0,0,0,0,0,0,1.6,1.5996,1.5963,1.5944,1.5938,1.5918,1.591,1.5914,1.586,1.5873,1.5867,1.5861,1.5814,1.5808,1.5805,1.5813,1.5777,1.5777,1.5777,1.5776,1.585,1.5852,0,0,0,0,0,0,1.601,1.5999,1.5965,1.5962,1.5961,1.5919,1.591,1.5906,1.586,1.585,1.5863,1.5858,1.581,1.5806,1.5803,1.5846,1.5777,1.5776,1.5776,1.5848,1.585,1.5853,0,0,0,0,0,0,1.6011,1.6007,1.5968,1.5978,1.5972,1.592,1.5916,1.5906,1.59,1.5852,1.5842,1.5866,1.5808,1.5804,1.5815,1.5843,1.5776,1.5776,1.5845,1.5848,1.5851,1.5933,0,0,0,0,0,0,1.6013,1.6008,1.6023,1.5979,1.5971,1.598,1.5918,1.5907,1.5899,1.5891,1.5852,1.5844,1.5806,1.5816,1.5815,1.5841,1.5776,1.5842,1.5847,1.585,1.5927,1.5938,1.5948,0,0,0,0,0,1.6014,1.6049,1.6024,1.6021,1.5989,1.5982,1.5978,1.5933,1.5902,1.5916,1.5885,1.5845,1.584,1.5818,1.5816,1.5842,1.584,1.5845,1.585,1.5923,1.5936,1.5948,0,0,0,0,0,0,1.6099,1.6043,1.6014,1.6036,1.6014,1.5968,1.5985,1.5949,1.5936,1.5929,1.5875,1.5867,1.5885,1.5865,1.5841,1.5878,1.5834,1.5839,1.589,1.5903,1.5913,1.5916,1.5775,0,0,0,0,0,1.612,1.6119,1.607,1.6094,1.6085,1.6037,1.6033,1.6,1.5975,1.5966,1.5936,1.5914,1.5907,1.5904,1.5896,1.5925,1.5914,1.5942,1.5952,1.5961,1.5965,1.5977,1.5988,1.5869,1.5868,1.5868,0,0,1.6164,1.6133,1.6136,1.611,1.609,1.609,1.603,1.6033,1.6032,1.5967,1.5974,1.5952,1.5924,1.5944,1.5951,1.5928,1.5996,1.5967,1.5974,1.5974,1.5983,1.5994,1.6005,1.5872,1.5871,1.5871,0,0,1.6243,1.622,1.6237,1.6217,1.6186,1.6154,1.6158,1.6117,1.6098,1.6106,1.6056,1.6055,1.6045,1.6026,1.6016,1.6087,1.6049,1.6086,1.6139,1.6152,1.6161,1.6169,1.6193,1.6202,1.6091,1.6091,1.6091,0,1.6301,1.6299,1.625,1.6255,1.6245,1.6185,1.6201,1.6184,1.6153,1.6147,1.6121,1.6106,1.6084,1.6097,1.6115,1.6109,1.6111,1.609,1.6163,1.6171,1.6178,1.62,1.6209,1.6096,1.6095,1.6095,1.6094,0,1.6371,1.6371,1.6388,1.6357,1.6349,1.636,1.6313,1.631,1.6278,1.6249,1.6256,1.6227,1.621,1.6211,1.6181,1.6221,1.6207,1.6173,1.6128,1.6195,1.6214,1.6222,1.6102,1.61,1.6099,1.6098,0,0,1.6502,1.6443,1.645,1.6435,1.6396,1.6394,1.6402,1.6385,1.6383,1.6364,1.6368,1.6361,1.6329,1.6317,1.6284,1.6295,1.6351,1.626,1.6258,1.6276,1.6391,1.6415,1.6426,1.6326,1.6328,1.6329,1.6393,0,1.6572,1.6581,1.6537,1.6558,1.6556,1.6498,1.6505,1.6482,1.6455,1.6449,1.6419,1.6414,1.6373,1.6365,1.6374,1.6343,1.6373,1.6338,1.6329,1.633,1.6336,1.6436,1.6462,1.6524,1.64,1.6402,1.6403,0,1.6655,1.6638,1.6659,1.6617,1.6615,1.6622,1.6601,1.6597,1.657,1.6549,1.6535,1.6496,1.6501,1.6458,1.6463,1.644,1.6434,1.6418,1.642,1.6416,1.6369,1.6434,1.6543,1.6551,1.6415,1.6414,1.6413,0,1.6746,1.6729,1.6738,1.6727,1.6679,1.6685,1.6666,1.6636,1.6628,1.6611,1.6605,1.6589,1.658,1.6569,1.6526,1.65,1.6536,1.649,1.6518,1.6519,1.6527,1.6527,1.6635,1.6527,1.6527,1.6526,1.6526,0,1.6828,1.6843,1.6778,1.6784,1.6798,1.6747,1.6763,1.6738,1.6711,1.6711,1.6661,1.6662,1.6607,1.6602,1.6569,1.6577,1.6574,1.6557,1.6548,1.656,1.6562,1.6555,1.6549,1.6529,1.6528,1.6528,1.6527,0,1.6931,1.6889,1.6895,1.6849,1.6838,1.685,1.681,1.6814,1.6783,1.6783,1.678,1.6733,1.6724,1.668,1.6662,1.664,1.6659,1.6642,1.6668,1.6661,1.6691,1.6688,1.6796,1.6807,1.6694,1.6695,1.6696,0,1.6986,1.6995,1.695,1.6945,1.6928,1.6922,1.6913,1.6864,1.6856,1.6825,1.6832,1.6819,1.6805,1.6793,1.6757,1.6742,1.6723,1.6762,1.6721,1.6733,1.6722,1.6721,1.6721,1.6771,1.6772,1.6774,1.6775,0,1.7086,1.7064,1.7053,1.7034,1.7025,1.7008,1.6988,1.6988,1.6933,1.6927,1.6916,1.6906,1.6886,1.6873,1.6852,1.6832,1.6794,1.6788,1.6793,1.6806,1.6819,1.681,1.669,1.6786,1.6784,1.6784,1.6783,1.6783,1.7165,1.717,1.7138,1.7127,1.7107,1.7089,1.7089,1.7058,1.7048,1.7027,1.6999,1.6992,1.6963,1.693,1.6913,1.6907,1.6886,1.6894,1.6896,1.6898,1.6903,1.6822,1.6903,1.6903,1.6902,1.6902,1.6902,0,1.7261,1.7238,1.7228,1.7201,1.7192,1.7157,1.7133,1.7127,1.7122,1.7098,1.7085,1.7072,1.7059,1.7022,1.7005,1.7007,1.6989,1.7004,1.7002,1.6998,1.6925,1.6921,1.7018,1.7018,1.7018,1.7018,1.7018,1.7018,1.731,1.7316,1.729,1.7285,1.7262,1.7254,1.7243,1.7226,1.7206,1.7194,1.7182,1.7158,1.7128,1.7108,1.7094,1.7084,1.7079,1.7099,1.7083,1.7015,1.7003,1.6993,1.6989,1.7099,1.7099,1.7156,1.7157,1.7157]}]]